This is the latest recevied weather packets stored in our database for station/object KD5FHA. If no packets are shown the sender has not sent any weather packets the latest 10 day(s).
| Time | Temp. | Humidity | Pressure | Rain* | Wind** | Luminosity | Snow |
|---|---|---|---|---|---|---|---|
| 1787775932 | 34.44° C | 53% | 1015.7 hPa | 0 mm | - | 419 W/m² | - |
| 1787775627 | 34.44° C | 52% | 1015.8 hPa | 0 mm | - | 294 W/m² | - |
| 1787775325 | 34.44° C | 53% | 1015.8 hPa | 0 mm | - | 331 W/m² | - |
| 1787775025 | 34.44° C | 53% | 1015.7 hPa | 0 mm | - | 318 W/m² | - |
| 1787774724 | 33.89° C | 54% | 1016 hPa | 0 mm | - | 301 W/m² | - |
| 1787774419 | 33.89° C | 54% | 1015.8 hPa | 0 mm | - | 290 W/m² | - |
| 1787774114 | 33.89° C | 55% | 1015.8 hPa | 0 mm | - | 300 W/m² | - |
| 1787773812 | 33.33° C | 55% | 1016 hPa | 0 mm | - | 298 W/m² | - |
| 1787773511 | 33.33° C | 56% | 1016.1 hPa | 0 mm | - | 254 W/m² | - |
| 1787773207 | 32.78° C | 56% | 1016.2 hPa | 0 mm | - | 185 W/m² | - |
| 1787772902 | 32.78° C | 56% | 1016 hPa | 0 mm | - | 139 W/m² | - |
| 1787772597 | 33.33° C | 56% | 1016 hPa | 0 mm | - | 123 W/m² | - |
| 1787772291 | 32.78° C | 56% | 1016.1 hPa | 0 mm | - | 130 W/m² | - |
| 1787771990 | 32.78° C | 57% | 1016.2 hPa | 0 mm | - | 135 W/m² | - |
| 1787771685 | 32.78° C | 56% | 1016.1 hPa | 0 mm | - | 116 W/m² | - |
| 1787771378 | 32.78° C | 56% | 1016.2 hPa | 0 mm | - | 98 W/m² | - |
| 1787771072 | 32.78° C | 56% | 1016.4 hPa | 0 mm | - | 98 W/m² | - |
| 1787770767 | 32.78° C | 57% | 1016.3 hPa | 0 mm | - | 100 W/m² | - |
| 1787770461 | 32.78° C | 56% | 1016.4 hPa | 0 mm | - | 93 W/m² | - |
| 1787770160 | 32.78° C | 55% | 1016.4 hPa | 0 mm | - | 87 W/m² | - |
| 1787769860 | 32.78° C | 55% | 1016.6 hPa | 0 mm | - | 79 W/m² | - |
| 1787769559 | 32.78° C | 55% | 1016.5 hPa | 0 mm | - | 78 W/m² | - |
| 1787769258 | 32.78° C | 54% | 1016.4 hPa | 0 mm | - | 77 W/m² | - |
| 1787768958 | 32.78° C | 55% | 1016.5 hPa | 0 mm | - | 77 W/m² | - |
| 1787768653 | 32.78° C | 55% | 1016.4 hPa | 0 mm | - | 79 W/m² | - |
* Rain latest hour (hover to see other rain measurements)
** Current wind speed in m/s (hover to see current wind gust speed)